Showing default

LYNK TOWER 3, 55046

Orbit data source: Space-Track

LYNK TOWER 3, 55046 is a payload satellite owned by Lynk (US) in SSO that was launched on Tue, 03 Jan 2023 UTC via an FALCON 9 launch vehicle from the Air Force Eastern Test Range (AFETR). Payload-class satellites include a variety of spacecraft equipped with specific instruments for various scientific and technological missions. These include communications satellites like Starlink; space stations such as the ISS; scientific satellites like the Hubble; Earth observation satellites from companies like Planet Labs, Umbra, and HawkEye 360; GPS; miniature CubeSats for education and research; and military/defense satellites.

Loading next visibility...
Identifier
55046, 2023-001AP
Orbit
SSO
Country
Flag of USUS
Related business
Manufacturer
Lynk
Mission
Operational Commercial Communications
Bus & Motor
LYNK SHANNON, Unknown motor
Mass
~80 kg wet, ~80 kg dry
Launch date (UTC)
2023-01-03 (4 years ago)
Launch vehicle
FALCON 9
Launch site
Air Force Eastern Test Range (AFETR)
Object type
Payload
Rocket body
Debris
Shape & HBR
Box, 1.0 m
Radar Cross Section
0.650 m², Medium (>0.1 m² and < 1m²)

Expand to show TLE details & history
Last TLE update: 9 hours ago

TLE from 9 hours ago
0 LYNK TOWER 3
1 55046U 23001AP  26257.91809795  .00011194  00000-0  30080-3 0  9996
2 55046  97.3098 317.7744 0008408 146.4329 213.7450 15.38041545205690
Epoch: 2026-09-14T22:02Z
TLE epoch observation values (Epoch: 2026-09-14T22:02:03.662Z)
Latitude
-0.00009°
Longitude
-6.63235°
Altitude
459.796 km
Speed
7.634 km/s
True Right ascension
21h 11m 05s
True Declination
0° 00' 00"
Sunlit
Object was in full shadow at epoch
Visualization orbit readout
Latitude
Unknown
Longitude
Unknown
Altitude
Unknown
Speed
Unknown
Apparent Right ascension
Unknown
Apparent Declination
Unknown
Sunlit
N/A
Visualization observer readout
Local Sidereal Time
00:01:06
Azimuth
Unknown
Elevation
Unknown
Doppler factor
Unknown
Orbital elements
Apogee altitude
454.579 km
Perigee altitude
443.099 km
Semi-major axis
6,826.976 km
Eccentricity
0.00084
Inclination
97.3098°
RAAN
317.7744°
Arg. of periapsis
146.4329°
True anomaly
213.69153°
Mean anomaly
213.745°
Eccentric anomaly
213.71826°
Mean motion
3.84769 °/min
Orbital period
93.56 mins
BSTAR
0.0003008
Loading maneuver chart data...
Computing Atmospheric mass density...

Documentation

Showing up to 5 results
|